Ningxia-1 04 xing

operational
NORAD ID: 44782 Int'l Des: 2019-076 Owner: NINGX/CASC Country: CN
LEOCIRCULAR

Über Ningxia-1 04 xing

Beschreibung wird geladen...

Live-Position

3D-Globus wird geladen...

Nächste Überflüge

Höhenverlauf

Altitude vs Time

uPlot chart will show altitude changes over time

Zweizeiliger Elementsatz

1 44782U 19076D 26061.17977231 -.00000162 00000-0 -20985-4 0 9999
2 44782 45.0093 298.0210 0013341 336.6035 23.4190 14.02014308322805
Epoch: 2. März 2026 • Age: 29 hours

Aktueller Status

Höhe 900.2 km
Geschwindigkeit 7.40 km/s
Subsatellitenpunkt -36.80°S, 80.38°W
Startdatum 13. Nov. 2019
Alter 6.3 years
Typ other

Technische Details

Klassifizierung Payload
Masse 100.00 kg
Trockenmasse 100.00 kg
Gesamtmasse 100.00 kg
Länge 0.50 m
Durchmesser 0.20 m
Spannweite 1.00 m
Form Box + 2 pan
Hersteller DFHZ
Bus-Typ NX-1
Phasenstatus In Orbit
Besitzer/Staat NINGX/CASC/CN

Große Konstellationen

Loading constellations...